Weather Roundup
Issued by NWS

Home | Current Version | Previous Version | Graphics & Text | Print | Product List | Glossary Off
Versions: 1 2 3 4 5 6 7 8 9 10 11 12 13 14 15 16 17 18 19 20 21 22 23 24 25 26 27 28 29 30 31 32 33 34 35 36 37 38 39 40 41 42 43 44 45 46 47 48 49 50

000
NZUS93 KARX 160159
HRRWXR

CURRENT HOURLY OBSERVATIONS ACROSS
MUCH OF THE UPPER MISSISSIPPI VALLEY
NATIONAL WEATHER SERVICE LA CROSSE WI
800 PM CST SUN JAN 15 2017


...SOUTHEAST MINNESOTA...


CITY           SKY/WX    TMP DP  RH WIND       PRES   REMARKS
ROCHESTER      CLOUDY    17  14  88 S9        30.23F WCI   6
ROCHESTER/MAYO FAIR      22  17  81 SE6       30.24S WCI  14
WINONA         CLOUDY    14  10  85 CALM      30.29S
AUSTIN         CLOUDY    19  16  86 SE3       30.23S
ALBERT LEA     CLOUDY    21  18  86 SE6       30.22S WCI  14
DODGE CENTER   CLOUDY    16  12  86 CALM      30.22S
PRESTON        CLOUDY    19  15  83 S7        30.25S WCI  10
OWATONNA       CLOUDY    21  18  86 SE9       30.22S WCI  11
FARIBAULT      CLOUDY    21  18  86 S5        30.23S WCI  15
$$

...ELSEWHERE IN MINNESOTA...


CITY           SKY/WX    TMP DP  RH WIND       PRES   REMARKS
MINNEAPOLIS    CLOUDY    24  18  77 S5        30.22S WCI  18
INTNL FALLS    CLOUDY    21  13  71 SW9       29.99F WCI  11
DULUTH         CLOUDY    24  14  65 SW17      30.09F WCI  11
RED WING       CLOUDY    19  14  79 SE3       30.24F
REDWOOD FALLS  PTCLDY    22  17  81 S9        30.18S WCI  12
MANKATO        PTCLDY    23  19  85 S8        30.22S WCI  14
WORTHINGTON    CLOUDY    26  19  74 S6          N/A  WCI  19
FAIRMONT       CLOUDY    24  20  84 S8        30.21F WCI  15
$$

...SOUTHWEST WISCONSIN...


CITY           SKY/WX    TMP DP  RH WIND       PRES   REMARKS
PRAIRIE DU CHI CLOUDY    24  17  73 E3        30.30S
BOSCOBEL       CLOUDY    21  16  81 CALM      30.30F
LONE ROCK      NOT AVBL
PLATTEVILLE    CLOUDY    26  22  84 E5        30.30S WCI  21
FORT MC COY    CLOUDY    11   9  94 CALM      30.29F
MAUSTON-NEW LI CLOUDY    17  13  87 CALM      30.27F
VIROQUA        FAIR      24  13  64 CALM      30.25S
WIS DELLS      CLOUDY    19  12  75 CALM      30.28S
$$

...ELSEWHERE IN WISCONSIN...


CITY           SKY/WX    TMP DP  RH WIND       PRES   REMARKS
MILWAUKEE      CLOUDY    28  18  66 SW3       30.31F
MADISON        CLOUDY    27  18  69 S6        30.29F WCI  20
GREEN BAY      CLOUDY    18  11  74 SW3       30.28F
EAU CLAIRE     NOT AVBL
BLACK RVR FLS  FAIR       6   4  91 CALM      30.28S
MEDFORD        CLOUDY    11   6  80 S6        30.21S WCI   2
WAUSAU         CLOUDY    17   9  70 E3        30.23F
WIS RAPIDS     CLOUDY    12  10  92 CALM      30.27F FOG
MARSHFIELD     CLOUDY    14   9  80 SW3       30.23F
RICE LAKE      CLOUDY    13   8  81 E3        30.23S
$$

...NORTHEAST IOWA...


CITY           SKY/WX    TMP DP  RH WIND       PRES   REMARKS
WATERLOO       CLOUDY    28  18  66 SE5       30.26S WCI  23
DUBUQUE        CLOUDY    26  18  71 SE3       30.28S
DECORAH        CLOUDY    21  16  79 S6        30.25S WCI  14
MASON CITY     CLOUDY    19  16  88 CALM      30.25R
CHARLES CITY   CLOUDY    21  19  93 E7        30.26R WCI  13
OELWEIN        CLOUDY    25  23  93 E3        30.26S
$$

...ELSEWHERE IN IOWA...


CITY           SKY/WX    TMP DP  RH WIND       PRES   REMARKS
DES MOINES     FRZ RAIN  31  26  82 SE8       30.23S WCI  23
IOWA CITY      CLOUDY    32  17  54 SE6       30.29F WCI  26
FORT DODGE     CLOUDY    27  19  74 E6        30.22F WCI  20
MARSHALLTOWN   PTCLDY    29  19  66 SE7       30.23F WCI  22
CEDAR RAPIDS   CLOUDY    29  15  56 SE5       30.25F WCI  24
$$

...NORTHERN ILLINOIS...


CITY           SKY/WX    TMP DP  RH WIND       PRES   REMARKS
CHICAGO-OHARE  CLOUDY    31  22  69 CALM      30.32S
CHICAGO-MIDWAY CLOUDY    33  24  69 S3        30.33S
MOLINE         CLOUDY    31  22  69 E3        30.29F
ROCKFORD       CLOUDY    27  19  72 CALM      30.33S
PEORIA         CLOUDY    33  30  88 E3        30.30F FOG
$$

NOTE: "FAIR" INDICATES FEW OR NO CLOUDS BELOW 12,000 FEET WITH NO
SIGNIFICANT WEATHER AND/OR OBSTRUCTIONS TO VISIBILITY. WIND
SPEEDS ARE IN MILES-PER-HOUR.




USA.gov is the U.S. government's official web portal to all federal, state and local government web resources and services.